Time,TemperatureF,DewpointF,PressureIn,WindDirection,WindDirectionDegrees,WindSpeedMPH,WindSpeedGustMPH,Humidity,HourlyPrecipIn,Conditions,Clouds,dailyrainin,SoftwareType,DateUTC
2013-03-25 00:02:00,29.0,28.0,29.56,ESE,109,0.0,10.0,97,0.00,,,0.34,,2013-03-25 04:02:00,
2013-03-25 00:12:00,29.0,28.0,29.56,ESE,109,0.0,10.0,97,0.00,,,0.34,,2013-03-25 04:12:00,
2013-03-25 00:22:00,29.0,28.0,29.56,ESE,109,0.0,10.0,97,0.00,,,0.34,,2013-03-25 04:22:00,
2013-03-25 00:33:00,29.0,28.0,29.56,ESE,109,0.0,10.0,97,0.00,,,0.34,,2013-03-25 04:33:00,
2013-03-25 00:43:00,29.0,28.0,29.56,ESE,109,0.0,10.0,97,0.00,,,0.34,,2013-03-25 04:43:00,
2013-03-25 00:52:00,30.0,29.0,29.57,SE,127,0.0,0.0,97,0.00,,,0.34,,2013-03-25 04:52:00,
2013-03-25 01:03:00,30.0,29.0,29.57,SE,127,0.0,0.0,97,0.00,,,0.34,,2013-03-25 05:03:00,
2013-03-25 01:12:00,30.0,29.0,29.57,SE,127,0.0,0.0,97,0.00,,,0.34,,2013-03-25 05:12:00,
2013-03-25 01:22:00,30.0,29.0,29.57,SE,127,0.0,0.0,96,0.00,,,0.34,,2013-03-25 05:22:00,
2013-03-25 01:32:00,31.0,30.0,29.57,SE,127,0.0,0.0,96,0.00,,,0.34,,2013-03-25 05:32:00,
2013-03-25 01:42:00,31.0,30.0,29.57,SE,127,0.0,0.0,96,0.00,,,0.34,,2013-03-25 05:42:00,
2013-03-25 01:52:00,31.0,30.0,29.57,SE,127,0.0,0.0,96,0.00,,,0.34,,2013-03-25 05:52:00,
2013-03-25 02:02:00,31.0,30.0,29.56,SE,127,0.0,0.0,96,0.00,,,0.34,,2013-03-25 06:02:00,
2013-03-25 02:12:00,31.0,30.0,29.56,SE,127,0.0,0.0,96,0.00,,,0.34,,2013-03-25 06:12:00,
2013-03-25 02:22:00,31.0,30.0,29.56,SE,127,0.0,0.0,96,0.00,,,0.34,,2013-03-25 06:22:00,
2013-03-25 02:32:00,31.0,30.0,29.54,SE,127,0.0,0.0,96,0.00,,,0.34,,2013-03-25 06:32:00,
2013-03-25 02:42:00,31.0,30.0,29.54,SE,127,0.0,0.0,96,0.00,,,0.34,,2013-03-25 06:42:00,
2013-03-25 02:53:00,30.0,29.0,29.54,SE,127,0.0,0.0,96,0.00,,,0.34,,2013-03-25 06:53:00,
2013-03-25 03:02:00,30.0,29.0,29.54,SE,127,0.0,0.0,96,0.00,,,0.34,,2013-03-25 07:02:00,
2013-03-25 03:12:00,30.0,29.0,29.54,SE,127,0.0,0.0,96,0.00,,,0.34,,2013-03-25 07:12:00,
2013-03-25 03:22:00,30.0,29.0,29.53,SE,127,0.0,0.0,96,0.00,,,0.34,,2013-03-25 07:22:00,
2013-03-25 03:32:00,30.0,29.0,29.52,SE,127,0.0,0.0,96,0.00,,,0.34,,2013-03-25 07:32:00,
2013-03-25 03:42:00,30.0,29.0,29.52,SE,127,0.0,0.0,96,0.00,,,0.34,,2013-03-25 07:42:00,
2013-03-25 03:53:00,30.0,29.0,29.52,SE,127,0.0,0.0,96,0.00,,,0.34,,2013-03-25 07:53:00,
2013-03-25 04:02:00,30.0,29.0,29.53,SE,127,0.0,0.0,96,0.00,,,0.34,,2013-03-25 08:02:00,
2013-03-25 04:12:00,30.0,29.0,29.53,SE,127,0.0,0.0,96,0.00,,,0.34,,2013-03-25 08:12:00,
2013-03-25 04:23:00,31.0,30.0,29.52,SE,127,0.0,0.0,96,0.00,,,0.34,,2013-03-25 08:23:00,
2013-03-25 04:32:00,31.0,30.0,29.51,SE,127,0.0,0.0,96,0.00,,,0.34,,2013-03-25 08:32:00,
2013-03-25 04:43:00,31.0,30.0,29.51,SE,127,0.0,0.0,96,0.00,,,0.34,,2013-03-25 08:43:00,
2013-03-25 04:52:00,31.0,30.0,29.51,SE,127,0.0,0.0,96,0.00,,,0.34,,2013-03-25 08:52:00,
2013-03-25 05:02:00,31.0,30.0,29.51,SE,127,0.0,0.0,96,0.00,,,0.34,,2013-03-25 09:02:00,
2013-03-25 05:12:00,31.0,30.0,29.51,SE,127,0.0,0.0,96,0.00,,,0.34,,2013-03-25 09:12:00,
2013-03-25 05:22:00,30.0,29.0,29.51,SE,127,0.0,0.0,96,0.00,,,0.34,,2013-03-25 09:22:00,
2013-03-25 05:33:00,30.0,29.0,29.51,SE,127,0.0,0.0,96,0.00,,,0.34,,2013-03-25 09:33:00,
2013-03-25 05:43:00,30.0,29.0,29.51,SE,127,0.0,0.0,96,0.00,,,0.34,,2013-03-25 09:43:00,
2013-03-25 05:53:00,30.0,29.0,29.50,SE,127,0.0,0.0,96,0.00,,,0.34,,2013-03-25 09:53:00,
2013-03-25 06:03:00,30.0,29.0,29.50,SE,127,0.0,0.0,96,0.00,,,0.34,,2013-03-25 10:03:00,
2013-03-25 06:12:00,30.0,29.0,29.50,SE,127,0.0,0.0,96,0.00,,,0.34,,2013-03-25 10:12:00,
2013-03-25 06:22:00,30.0,29.0,29.50,SE,127,0.0,0.0,96,0.00,,,0.34,,2013-03-25 10:22:00,
2013-03-25 06:32:00,30.0,29.0,29.49,SE,127,0.0,0.0,96,0.00,,,0.34,,2013-03-25 10:32:00,
2013-03-25 06:43:00,30.0,29.0,29.49,SE,127,0.0,0.0,96,0.00,,,0.34,,2013-03-25 10:43:00,
2013-03-25 06:54:00,30.0,29.0,29.49,SE,127,0.0,0.0,96,0.00,,,0.34,,2013-03-25 10:54:00,
2013-03-25 07:00:00,30.0,29.0,29.49,SE,127,0.0,0.0,96,0.00,,,0.34,,2013-03-25 11:00:00,
2013-03-25 07:03:00,30.0,29.0,29.49,SE,127,0.0,0.0,96,0.00,,,0.34,,2013-03-25 11:03:00,
2013-03-25 07:12:00,30.0,29.0,29.49,SE,127,0.0,0.0,96,0.00,,,0.34,,2013-03-25 11:12:00,
2013-03-25 07:23:00,30.0,29.0,29.49,SE,127,0.0,0.0,96,0.00,,,0.34,,2013-03-25 11:23:00,
2013-03-25 07:32:00,30.0,29.0,29.49,SE,127,0.0,0.0,96,0.00,,,0.34,,2013-03-25 11:32:00,
2013-03-25 07:42:00,30.0,29.0,29.49,SE,127,0.0,0.0,96,0.00,,,0.34,,2013-03-25 11:42:00,
2013-03-25 07:53:00,30.0,29.0,29.49,SE,127,0.0,0.0,96,0.00,,,0.34,,2013-03-25 11:53:00,
2013-03-25 08:13:00,30.0,29.0,29.49,SE,127,0.0,0.0,96,0.00,,,0.34,,2013-03-25 12:13:00,
2013-03-25 08:23:00,30.0,29.0,29.49,SE,127,0.0,0.0,96,0.00,,,0.34,,2013-03-25 12:23:00,
2013-03-25 08:33:00,30.0,29.0,29.50,SE,127,0.0,0.0,96,0.00,,,0.34,,2013-03-25 12:33:00,
2013-03-25 08:43:00,30.0,29.0,29.50,SE,127,0.0,0.0,96,0.00,,,0.34,,2013-03-25 12:43:00,
2013-03-25 08:53:00,30.0,29.0,29.50,SE,127,0.0,0.0,96,0.00,,,0.34,,2013-03-25 12:53:00,
2013-03-25 09:02:00,30.0,29.0,29.50,SE,127,0.0,0.0,96,0.00,,,0.34,,2013-03-25 13:02:00,
2013-03-25 09:13:00,30.0,29.0,29.50,SE,127,0.0,0.0,96,0.00,,,0.34,,2013-03-25 13:13:00,
2013-03-25 09:23:00,31.0,30.0,29.51,SE,127,0.0,0.0,96,0.00,,,0.34,,2013-03-25 13:23:00,
2013-03-25 09:32:00,31.0,30.0,29.51,SE,127,0.0,0.0,96,0.00,,,0.34,,2013-03-25 13:32:00,
2013-03-25 09:43:00,31.0,30.0,29.51,SE,127,0.0,0.0,96,0.00,,,0.34,,2013-03-25 13:43:00,
2013-03-25 09:52:00,31.0,30.0,29.50,SE,127,0.0,0.0,96,0.00,,,0.34,,2013-03-25 13:52:00,
2013-03-25 10:03:00,31.0,30.0,29.50,SE,127,0.0,0.0,96,0.00,,,0.34,,2013-03-25 14:03:00,
2013-03-25 10:12:00,31.0,30.0,29.50,SE,127,0.0,0.0,96,0.00,,,0.34,,2013-03-25 14:12:00,
2013-03-25 10:22:00,31.0,30.0,29.50,SE,127,0.0,0.0,96,0.00,,,0.34,,2013-03-25 14:22:00,
2013-03-25 10:32:00,33.0,32.0,29.51,SE,127,0.0,0.0,95,0.00,,,0.34,,2013-03-25 14:32:00,
2013-03-25 10:43:00,33.0,32.0,29.51,SE,127,0.0,0.0,95,0.00,,,0.34,,2013-03-25 14:43:00,
2013-03-25 10:53:00,33.0,31.0,29.51,WSW,241,0.0,13.0,94,0.00,,,0.34,,2013-03-25 14:53:00,
2013-03-25 11:03:00,34.0,32.0,29.51,WNW,295,5.0,10.0,92,0.01,,,0.35,,2013-03-25 15:03:00,
2013-03-25 11:13:00,34.0,32.0,29.51,WNW,295,5.0,10.0,92,0.01,,,0.35,,2013-03-25 15:13:00,
2013-03-25 11:23:00,35.0,33.0,29.51,SSW,203,2.0,10.0,91,0.01,,,0.35,,2013-03-25 15:23:00,
2013-03-25 11:33:00,36.0,33.0,29.51,North,5,4.0,14.0,88,0.01,,,0.35,,2013-03-25 15:33:00,
2013-03-25 11:42:00,36.0,33.0,29.51,North,5,4.0,14.0,88,0.01,,,0.35,,2013-03-25 15:42:00,
2013-03-25 11:53:00,37.0,33.0,29.52,WNW,299,5.0,15.0,84,0.01,,,0.35,,2013-03-25 15:53:00,
2013-03-25 12:03:00,37.0,32.0,29.52,NNW,339,5.0,16.0,83,0.00,,,0.35,,2013-03-25 16:03:00,
2013-03-25 12:12:00,37.0,32.0,29.52,NNW,339,5.0,16.0,83,0.00,,,0.35,,2013-03-25 16:12:00,
2013-03-25 12:23:00,37.0,32.0,29.52,NNW,339,5.0,16.0,83,0.00,,,0.35,,2013-03-25 16:23:00,
2013-03-25 12:33:00,39.0,32.0,29.52,North,4,5.0,20.0,77,0.01,,,0.36,,2013-03-25 16:33:00,
2013-03-25 12:43:00,39.0,32.0,29.52,North,4,5.0,20.0,77,0.01,,,0.36,,2013-03-25 16:43:00,
2013-03-25 12:53:00,39.0,32.0,29.52,North,4,5.0,20.0,77,0.01,,,0.36,,2013-03-25 16:53:00,
2013-03-25 13:03:00,39.0,32.0,29.52,North,4,5.0,20.0,77,0.01,,,0.36,,2013-03-25 17:03:00,
2013-03-25 13:12:00,39.0,32.0,29.52,North,4,5.0,20.0,77,0.01,,,0.36,,2013-03-25 17:12:00,
2013-03-25 13:24:00,38.0,30.0,29.53,NNW,331,10.0,22.0,74,0.05,,,0.40,,2013-03-25 17:24:00,
2013-03-25 13:33:00,38.0,30.0,29.53,NNW,331,10.0,22.0,74,0.05,,,0.40,,2013-03-25 17:33:00,
2013-03-25 13:43:00,38.0,30.0,29.53,NNW,331,10.0,22.0,74,0.05,,,0.40,,2013-03-25 17:43:00,
2013-03-25 13:53:00,38.0,28.0,29.53,NNW,335,7.0,18.0,68,0.07,,,0.44,,2013-03-25 17:53:00,
2013-03-25 14:03:00,38.0,28.0,29.53,NNW,335,7.0,18.0,68,0.07,,,0.44,,2013-03-25 18:03:00,
2013-03-25 14:13:00,38.0,28.0,29.53,NNW,335,7.0,18.0,68,0.07,,,0.44,,2013-03-25 18:13:00,
2013-03-25 14:23:00,41.0,31.0,29.54,WNW,284,7.0,15.0,66,0.08,,,0.48,,2013-03-25 18:23:00,
2013-03-25 14:33:00,41.0,30.0,29.54,North,353,9.0,21.0,64,0.10,,,0.52,,2013-03-25 18:33:00,
2013-03-25 14:43:00,41.0,30.0,29.54,North,353,9.0,21.0,64,0.10,,,0.52,,2013-03-25 18:43:00,
2013-03-25 14:53:00,41.0,30.0,29.54,North,353,9.0,21.0,64,0.10,,,0.52,,2013-03-25 18:53:00,
2013-03-25 15:03:00,41.0,30.0,29.54,North,353,9.0,21.0,64,0.10,,,0.52,,2013-03-25 19:03:00,
2013-03-25 15:13:00,41.0,30.0,29.54,North,353,9.0,21.0,64,0.10,,,0.52,,2013-03-25 19:13:00,
2013-03-25 15:33:00,38.0,27.0,29.54,NNW,345,8.0,23.0,64,0.12,,,0.63,,2013-03-25 19:33:00,
2013-03-25 15:43:00,38.0,27.0,29.54,NNW,345,8.0,23.0,64,0.12,,,0.63,,2013-03-25 19:43:00,
2013-03-25 15:53:00,38.0,27.0,29.54,NNW,345,8.0,23.0,64,0.12,,,0.63,,2013-03-25 19:53:00,
2013-03-25 16:02:00,38.0,27.0,29.54,NNW,345,8.0,23.0,64,0.12,,,0.63,,2013-03-25 20:02:00,
2013-03-25 16:12:00,38.0,27.0,29.54,NNW,345,8.0,23.0,64,0.12,,,0.63,,2013-03-25 20:12:00,
2013-03-25 16:32:00,38.0,28.0,29.55,West,274,3.0,18.0,67,0.01,,,0.34,,2013-03-25 20:32:00,
2013-03-25 16:42:00,38.0,28.0,29.55,West,274,3.0,18.0,67,0.01,,,0.34,,2013-03-25 20:42:00,
2013-03-25 16:52:00,38.0,28.0,29.55,West,274,3.0,18.0,67,0.01,,,0.34,,2013-03-25 20:52:00,
2013-03-25 17:03:00,38.0,28.0,29.55,West,274,3.0,18.0,67,0.01,,,0.34,,2013-03-25 21:03:00,
2013-03-25 17:12:00,38.0,28.0,29.55,West,274,3.0,18.0,67,0.01,,,0.34,,2013-03-25 21:12:00,
2013-03-25 17:33:00,35.0,29.0,29.59,WSW,250,5.0,15.0,80,0.01,,,0.35,,2013-03-25 21:33:00,
2013-03-25 17:43:00,35.0,29.0,29.59,WSW,250,5.0,15.0,80,0.01,,,0.35,,2013-03-25 21:43:00,
2013-03-25 17:52:00,35.0,29.0,29.59,WSW,250,5.0,15.0,80,0.01,,,0.35,,2013-03-25 21:52:00,
2013-03-25 18:03:00,37.0,28.0,29.59,NW,323,12.0,24.0,70,0.01,,,0.34,,2013-03-25 22:03:00,
2013-03-25 18:12:00,37.0,28.0,29.59,NW,323,12.0,24.0,70,0.01,,,0.34,,2013-03-25 22:12:00,
2013-03-25 18:23:00,38.0,28.0,29.59,NE,37,8.0,16.0,68,0.01,,,0.34,,2013-03-25 22:23:00,
2013-03-25 18:33:00,38.0,28.0,29.59,NE,37,8.0,16.0,68,0.01,,,0.34,,2013-03-25 22:33:00,
2013-03-25 18:42:00,38.0,28.0,29.59,NE,37,8.0,16.0,68,0.01,,,0.34,,2013-03-25 22:42:00,
2013-03-25 18:52:00,38.0,28.0,29.61,WNW,284,2.0,21.0,68,0.00,,,0.34,,2013-03-25 22:52:00,
2013-03-25 19:03:00,38.0,28.0,29.61,WNW,284,2.0,21.0,68,0.00,,,0.34,,2013-03-25 23:03:00,
2013-03-25 19:12:00,38.0,28.0,29.61,WNW,284,2.0,21.0,68,0.00,,,0.34,,2013-03-25 23:12:00,
2013-03-25 19:23:00,38.0,28.0,29.61,WNW,284,2.0,21.0,68,0.00,,,0.34,,2013-03-25 23:23:00,
2013-03-25 19:32:00,36.0,26.0,29.64,North,3,7.0,15.0,68,0.00,,,0.33,,2013-03-25 23:32:00,
2013-03-25 19:43:00,36.0,26.0,29.64,North,3,7.0,15.0,68,0.00,,,0.33,,2013-03-25 23:43:00,
2013-03-25 19:53:00,36.0,27.0,29.65,North,7,7.0,13.0,69,0.00,,,0.33,,2013-03-25 23:53:00,
2013-03-25 20:02:00,36.0,27.0,29.65,North,7,7.0,13.0,69,0.00,,,0.33,,2013-03-26 00:02:00,
2013-03-25 20:12:00,36.0,27.0,29.65,North,7,7.0,13.0,69,0.00,,,0.33,,2013-03-26 00:12:00,
2013-03-25 20:22:00,35.0,27.0,29.67,North,358,6.0,14.0,72,0.00,,,0.33,,2013-03-26 00:22:00,
2013-03-25 20:32:00,35.0,28.0,29.68,NNE,17,3.0,14.0,74,0.01,,,0.34,,2013-03-26 00:32:00,
2013-03-25 20:43:00,35.0,28.0,29.68,NNE,17,3.0,14.0,74,0.01,,,0.34,,2013-03-26 00:43:00,
2013-03-25 20:52:00,34.0,27.0,29.68,NNE,33,6.0,14.0,75,0.01,,,0.34,,2013-03-26 00:52:00,
2013-03-25 21:02:00,34.0,27.0,29.68,NNE,33,6.0,14.0,75,0.01,,,0.34,,2013-03-26 01:02:00,
2013-03-25 21:12:00,34.0,27.0,29.68,NNE,33,6.0,14.0,75,0.01,,,0.34,,2013-03-26 01:12:00,
2013-03-25 21:23:00,34.0,27.0,29.69,NE,51,3.0,15.0,76,0.01,,,0.34,,2013-03-26 01:23:00,
2013-03-25 21:32:00,33.0,26.0,29.69,North,0,6.0,21.0,76,0.00,,,0.34,,2013-03-26 01:32:00,
2013-03-25 21:42:00,33.0,26.0,29.69,North,0,6.0,21.0,76,0.00,,,0.34,,2013-03-26 01:42:00,
2013-03-25 21:52:00,33.0,26.0,29.69,North,0,6.0,21.0,76,0.00,,,0.34,,2013-03-26 01:52:00,
2013-03-25 22:02:00,33.0,26.0,29.69,North,0,6.0,21.0,76,0.00,,,0.34,,2013-03-26 02:02:00,
2013-03-25 22:12:00,33.0,26.0,29.69,North,0,6.0,21.0,76,0.00,,,0.34,,2013-03-26 02:12:00,
2013-03-25 22:23:00,34.0,27.0,29.70,NE,44,4.0,12.0,75,0.00,,,0.34,,2013-03-26 02:23:00,
2013-03-25 22:32:00,34.0,27.0,29.71,North,359,5.0,12.0,76,0.00,,,0.34,,2013-03-26 02:32:00,
2013-03-25 22:43:00,34.0,27.0,29.71,North,359,5.0,12.0,76,0.00,,,0.34,,2013-03-26 02:43:00,
2013-03-25 22:52:00,34.0,27.0,29.71,North,359,5.0,12.0,76,0.00,,,0.34,,2013-03-26 02:52:00,
2013-03-25 23:02:00,34.0,27.0,29.72,North,1,5.0,5.0,76,0.00,,,0.33,,2013-03-26 03:02:00,
2013-03-25 23:12:00,34.0,27.0,29.72,North,1,5.0,5.0,76,0.00,,,0.33,,2013-03-26 03:12:00,
2013-03-25 23:22:00,34.0,27.0,29.72,North,1,5.0,5.0,76,0.00,,,0.33,,2013-03-26 03:22:00,
2013-03-25 23:34:00,34.0,27.0,29.72,North,1,5.0,5.0,76,0.00,,,0.33,,2013-03-26 03:34:00,
2013-03-25 23:42:00,34.0,27.0,29.72,North,1,5.0,5.0,76,0.00,,,0.33,,2013-03-26 03:42:00,
2013-03-25 23:53:00,34.0,27.0,29.72,North,1,5.0,5.0,76,0.00,,,0.33,,2013-03-26 03:53:00,